Showing default

CONNECTA IOT-9, 64534

Orbit data source: Space-Track

CONNECTA IOT-9, 64534 is a payload satellite owned by Plan-S (TR) in SSO that was launched on Mon, 23 Jun 2025 UTC via an FALCON 9 launch vehicle from the Air Force Western Test Range (AFWTR). Payload-class satellites include a variety of spacecraft equipped with specific instruments for various scientific and technological missions. These include communications satellites like Starlink; space stations such as the ISS; scientific satellites like the Hubble; Earth observation satellites from companies like Planet Labs, Umbra, and HawkEye 360; GPS; miniature CubeSats for education and research; and military/defense satellites.

Loading next visibility...
Identifier
64534, 2025-135G
Orbit
SSO
Country
Flag of TRTR / TURK
Related business
Manufacturer
Plan-S
Mission
Operational Commercial Communications
Bus & Motor
CUBESAT 6U, Unknown motor
Mass
10 kg wet, 10 kg dry
Launch date (UTC)
2025-06-23 (10 months ago)
Launch vehicle
FALCON 9
Launch site
Air Force Western Test Range (AFWTR)
Object type
Payload
Rocket body
Debris
Shape & HBR
Box, 2.2 m
Radar Cross Section
0.080 m², Medium (>0.1 m² and < 1m²)

Expand to show TLE details & history
Last TLE update: 7 hours ago

TLE from 7 hours ago
0 CONNECTA IOT-9
1 64534U 25135G   26120.13012969  .00003757  00000-0  17699-3 0  9997
2 64534  97.4702 235.4620 0004845 355.8302   4.2891 15.20119808 47529
Epoch: 2026-04-30T03:07Z
TLE epoch observation values (Epoch: 2026-04-30T03:07:23.205Z)
Latitude
-0.00009°
Longitude
-29.46583°
Altitude
505.241 km
Speed
7.613 km/s
True Right ascension
15h 41m 50s
True Declination
0° 00' 00"
Sunlit
Object was in full shadow at epoch
Visualization orbit readout
Latitude
Unknown
Longitude
Unknown
Altitude
Unknown
Speed
Unknown
Apparent Right ascension
Unknown
Apparent Declination
Unknown
Sunlit
N/A
Visualization observer readout
Local Sidereal Time
17:28:07
Azimuth
Unknown
Elevation
Unknown
Doppler factor
Unknown
Orbital elements
Apogee altitude
505.781 km
Perigee altitude
499.114 km
Semi-major axis
6,880.584 km
Eccentricity
0.00048
Inclination
97.4702°
RAAN
235.462°
Arg. of periapsis
355.8302°
True anomaly
4.29325°
Mean anomaly
4.2891°
Eccentric anomaly
4.29118°
Mean motion
3.80281 °/min
Orbital period
94.67 mins
BSTAR
0.00017699
Loading maneuver chart data...
Computing Atmospheric mass density...
Loading historical data...
Loading historical data...
Loading historical data...
Loading historical data...
Loading historical data...
Loading historical data...
Loading historical data...

Documentation

Showing up to 5 results
|